NOAA 16 DEB, 41408

Orbit data source: Space-Track

NOAA 16 DEB, 41408 is space debris in SSO originally from a launch on Thu, 21 Sep 2000 UTC launched from the Air Force Western Test Range (AFWTR). Debris objects in space refer to the collection of defunct objects orbiting the Earth. Examples of debris include non-operational satellites, rocket bodies, and fragments generated from explosions, collisions, or faulty payload assembly.

Loading next visibility...
Identifier
41408, 2000-055KM
Orbit
SSO
Country
Flag of USUS
Related business
Manufacturer
Unknown
Mission
Spacecraft
Bus & Motor
Unknown
Mass
Unknown
Launch date (UTC)
2000-09-21 (25 years ago)
Launch vehicle
Unknown
Launch site
Air Force Western Test Range (AFWTR)
Object type
Payload
Rocket body
Debris
Shape & HBR
Unknown shape, 0.1 m
Radar Cross Section
Small (<0.1 m²)

Expand to show TLE details & history
Last TLE update: 1 day ago

TLE from 1 day ago
0 NOAA 16 DEB
1 41408U 00055KM  25300.51444236  .00005430  00000-0  20450-2 0  9991
2 41408  98.7271  31.5773 0011978 203.4190 156.6448 14.31814714501918
Epoch: 2025-10-27T12:20Z
TLE epoch observation values (Epoch: 2025-10-27T12:20:47.819Z)
Latitude
-0.00013°
Longitude
170.26288°
Altitude
796.482 km
Speed
7.451 km/s
True Right ascension
02h 06m 18s
True Declination
0° 00' 00"
Sunlit
Object was in full shadow at epoch
Visualization orbit readout
Latitude
Unknown
Longitude
Unknown
Altitude
Unknown
Speed
Unknown
Apparent Right ascension
Unknown
Apparent Declination
Unknown
Sunlit
N/A
Visualization observer readout
Local Sidereal Time
14:49:40
Azimuth
Unknown
Elevation
Unknown
Doppler factor
Unknown
Orbital elements
Apogee altitude
791.392 km
Perigee altitude
774.238 km
Semi-major axis
7,160.952 km
Eccentricity
0.0012
Inclination
98.7271°
RAAN
31.5773°
Arg. of periapsis
203.419°
True anomaly
156.69914°
Mean anomaly
156.6448°
Eccentric anomaly
156.67198°
Mean motion
3.58168 °/min
Orbital period
100.51 mins
BSTAR
0.002045
Loading maneuver chart data...
Computing Atmospheric mass density...
Loading historical data...
Loading historical data...
Loading historical data...
Loading historical data...
Loading historical data...
Loading historical data...
Loading historical data...

Documentation

Showing up to 5 results
|